When you browse on this site, cookies collect data to enhance your experience and personalize the content and advertising you see.
Visit our Privacy Policy to learn more. By continuing to use the site, you agree to this use of cookies and data.
  • In Austria
  • List of Countries
  • For 7 days
  • Water Temperature
  • Weather Map
  • News
  • Weather Widgets
  • user-avatar
    Login

    Hourly Weather Granitnyy

    Today, 24 January, Friday

    Time Temperature Precipitation Wind Pressure Humidity
    00:00 -5°C° 0.2 mm 3 mps 725 mmHg 96%
    01:00 -5°C° 0.2 mm 3 mps 726 mmHg 96%
    02:00 -5°C° 0.1 mm 3 mps 726 mmHg 95%
    03:00 -7°C° 0.1 mm 4 mps 726 mmHg 94%
    04:00 -7°C° 0.1 mm 5 mps 726 mmHg 94%
    05:00 -8°C° 0.1 mm 5 mps 726 mmHg 94%
    06:00 -9°C° 0.1 mm 4 mps 727 mmHg 94%
    07:00 -9°C° 0.1 mm 4 mps 727 mmHg 94%
    08:00 -10°C° 0 mm 4 mps 727 mmHg 94%
    09:00 -10°C° 0 mm 4 mps 728 mmHg 93%
    10:00 -11°C° 0 mm 4 mps 729 mmHg 93%
    11:00 -11°C° 0 mm 4 mps 729 mmHg 93%
    12:00 -11°C° 0 mm 4 mps 729 mmHg 93%
    13:00 -10°C° 0 mm 3 mps 730 mmHg 93%
    14:00 -10°C° 0 mm 3 mps 730 mmHg 93%
    15:00 -12°C° 0 mm 3 mps 730 mmHg 93%
    16:00 -12°C° 0 mm 3 mps 731 mmHg 94%
    17:00 -14°C° 0 mm 4 mps 731 mmHg 93%
    18:00 -16°C° 0 mm 4 mps 732 mmHg 93%
    19:00 -17°C° 0 mm 4 mps 732 mmHg 93%
    20:00 -18°C° 0 mm 4 mps 732 mmHg 93%
    21:00 -19°C° 0 mm 4 mps 733 mmHg 93%
    22:00 -20°C° 0 mm 4 mps 734 mmHg 93%
    23:00 -20°C° 0 mm 4 mps 734 mmHg 93%

    Tomorrow, 25 January, Saturday

    Time Temperature Precipitation Wind Pressure Humidity
    00:00 -22°C° 0 mm 4 mps 734 mmHg 94%
    01:00 -23°C° 0 mm 4 mps 734 mmHg 95%
    02:00 -23°C° 0 mm 4 mps 735 mmHg 95%
    03:00 -23°C° 0 mm 4 mps 735 mmHg 96%
    04:00 -23°C° 0 mm 4 mps 735 mmHg 97%
    05:00 -24°C° 0 mm 4 mps 735 mmHg 97%
    06:00 -24°C° 0 mm 4 mps 735 mmHg 97%
    07:00 -24°C° 0 mm 4 mps 735 mmHg 98%
    08:00 -22°C° 0 mm 4 mps 735 mmHg 95%
    09:00 -21°C° 0 mm 5 mps 734 mmHg 93%
    10:00 -20°C° 0 mm 5 mps 734 mmHg 91%
    11:00 -18°C° 0 mm 6 mps 734 mmHg 88%
    12:00 -17°C° 0 mm 7 mps 733 mmHg 84%
    13:00 -15°C° 0 mm 8 mps 733 mmHg 81%
    14:00 -15°C° 0.2 mm 8 mps 732 mmHg 84%
    15:00 -14°C° 0.2 mm 9 mps 732 mmHg 88%
    16:00 -14°C° 0.2 mm 9 mps 731 mmHg 91%
    17:00 -14°C° 0.1 mm 9 mps 731 mmHg 90%
    18:00 -13°C° 0.1 mm 8 mps 730 mmHg 89%
    19:00 -13°C° 0.1 mm 8 mps 730 mmHg 88%
    20:00 -12°C° 0.1 mm 8 mps 729 mmHg 89%
    21:00 -11°C° 0.1 mm 8 mps 729 mmHg 90%
    22:00 -11°C° 0.1 mm 7 mps 729 mmHg 90%
    23:00 -11°C° 0 mm 7 mps 729 mmHg 91%

    Day after tomorrow, 26 January, Sunday

    Time Temperature Precipitation Wind Pressure Humidity
    00:00 -9°C° 0 mm 7 mps 729 mmHg 91%
    01:00 -9°C° 0 mm 6 mps 728 mmHg 92%
    02:00 -9°C° 0 mm 7 mps 728 mmHg 91%
    03:00 -9°C° 0 mm 7 mps 727 mmHg 90%
    04:00 -9°C° 0 mm 7 mps 727 mmHg 90%
    05:00 -8°C° 0.1 mm 8 mps 726 mmHg 91%
    06:00 -8°C° 0.1 mm 8 mps 725 mmHg 92%
    07:00 -8°C° 0.1 mm 9 mps 725 mmHg 93%
    08:00 -8°C° 0.4 mm 9 mps 724 mmHg 93%
    09:00 -7°C° 0.4 mm 10 mps 723 mmHg 93%
    10:00 -7°C° 0.4 mm 10 mps 722 mmHg 93%
    11:00 -7°C° 0.6 mm 10 mps 722 mmHg 93%
    12:00 -5°C° 0.6 mm 10 mps 721 mmHg 93%
    13:00 -5°C° 0.6 mm 10 mps 720 mmHg 93%
    14:00 -6°C° 0.2 mm 9 mps 720 mmHg 91%
    15:00 -8°C° 0.2 mm 9 mps 720 mmHg 89%
    16:00 -9°C° 0.2 mm 9 mps 720 mmHg 87%
    17:00 -10°C° 0 mm 9 mps 721 mmHg 87%
    18:00 -10°C° 0 mm 9 mps 721 mmHg 87%
    19:00 -11°C° 0 mm 9 mps 721 mmHg 87%
    20:00 -11°C° 0.1 mm 9 mps 722 mmHg 86%
    21:00 -10°C° 0.1 mm 9 mps 722 mmHg 85%
    22:00 -10°C° 0.1 mm 9 mps 723 mmHg 84%
    23:00 -11°C° 0 mm 8 mps 723 mmHg 84%

    27 January, Monday

    Time Temperature Precipitation Wind Pressure Humidity
    00:00 -13°C° 0 mm 8 mps 724 mmHg 84%
    01:00 -14°C° 0 mm 7 mps 725 mmHg 84%
    02:00 -15°C° 0 mm 7 mps 726 mmHg 86%
    03:00 -16°C° 0 mm 6 mps 727 mmHg 87%
    04:00 -17°C° 0 mm 5 mps 728 mmHg 88%
    05:00 -18°C° 0 mm 5 mps 729 mmHg 88%
    06:00 -18°C° 0 mm 5 mps 730 mmHg 87%
    07:00 -19°C° 0 mm 5 mps 730 mmHg 87%
    08:00 -19°C° 0 mm 5 mps 731 mmHg 87%
    09:00 -18°C° 0 mm 5 mps 731 mmHg 87%
    10:00 -18°C° 0 mm 5 mps 732 mmHg 87%
    11:00 -17°C° 0 mm 5 mps 732 mmHg 86%
    12:00 -16°C° 0 mm 6 mps 733 mmHg 85%
    13:00 -15°C° 0 mm 6 mps 733 mmHg 84%
    14:00 -15°C° 0 mm 6 mps 733 mmHg 85%
    15:00 -15°C° 0 mm 6 mps 733 mmHg 86%
    16:00 -16°C° 0 mm 6 mps 734 mmHg 87%
    17:00 -16°C° 0 mm 6 mps 734 mmHg 88%
    18:00 -16°C° 0 mm 6 mps 735 mmHg 89%
    19:00 -17°C° 0 mm 6 mps 735 mmHg 90%
    20:00 -17°C° 0 mm 5 mps 735 mmHg 89%
    21:00 -17°C° 0 mm 5 mps 736 mmHg 89%
    22:00 -17°C° 0 mm 5 mps 736 mmHg 88%
    23:00 -18°C° 0 mm 4 mps 737 mmHg 88%

    28 January, Tuesday

    Time Temperature Precipitation Wind Pressure Humidity
    00:00 -19°C° 0 mm 4 mps 737 mmHg 88%
    01:00 -19°C° 0 mm 3 mps 738 mmHg 87%
    02:00 -21°C° 0 mm 3 mps 738 mmHg 87%
    03:00 -21°C° 0 mm 3 mps 739 mmHg 86%
    04:00 -22°C° 0 mm 3 mps 739 mmHg 85%
    05:00 -20°C° 0 mm 2 mps 740 mmHg 83%
    06:00 -20°C° 0 mm 2 mps 740 mmHg 81%
    07:00 -18°C° 0 mm 1 mps 740 mmHg 79%
    08:00 -19°C° 0 mm 2 mps 741 mmHg 82%
    09:00 -18°C° 0 mm 2 mps 741 mmHg 86%
    10:00 -16°C° 0 mm 2 mps 741 mmHg 89%
    11:00 -15°C° 0.1 mm 3 mps 741 mmHg 91%
    12:00 -13°C° 0.1 mm 3 mps 741 mmHg 93%
    13:00 -10°C° 0.1 mm 3 mps 741 mmHg 94%
    14:00 -9°C° 0.2 mm 3 mps 740 mmHg 95%
    15:00 -8°C° 0.2 mm 3 mps 740 mmHg 95%
    16:00 -6°C° 0.2 mm 2 mps 740 mmHg 96%
    17:00 -6°C° 0.4 mm 3 mps 740 mmHg 96%
    18:00 -6°C° 0.4 mm 3 mps 740 mmHg 96%
    19:00 -5°C° 0.4 mm 3 mps 740 mmHg 96%
    20:00 -5°C° 0.3 mm 4 mps 740 mmHg 96%
    21:00 -5°C° 0.3 mm 4 mps 741 mmHg 95%
    22:00 -5°C° 0.3 mm 5 mps 741 mmHg 94%
    23:00 -5°C° 0.1 mm 5 mps 741 mmHg 94%

    29 January, Wednesday

    Time Temperature Precipitation Wind Pressure Humidity
    00:00 -5°C° 0.1 mm 5 mps 741 mmHg 94%
    01:00 -5°C° 0.1 mm 5 mps 741 mmHg 94%
    02:00 -5°C° 0 mm 4 mps 741 mmHg 94%
    03:00 -7°C° 0 mm 4 mps 742 mmHg 94%
    04:00 -6°C° 0 mm 3 mps 742 mmHg 94%
    05:00 -7°C° 0.1 mm 3 mps 742 mmHg 95%
    06:00 -6°C° 0.1 mm 2 mps 743 mmHg 95%
    07:00 -7°C° 0.1 mm 2 mps 743 mmHg 96%
    08:00 -7°C° 0.2 mm 2 mps 744 mmHg 96%
    09:00 -8°C° 0.2 mm 2 mps 744 mmHg 95%
    10:00 -9°C° 0.2 mm 3 mps 745 mmHg 95%
    11:00 -10°C° 0 mm 3 mps 745 mmHg 94%
    12:00 -10°C° 0 mm 3 mps 745 mmHg 94%
    13:00 -12°C° 0 mm 3 mps 745 mmHg 94%
    14:00 -12°C° 0 mm 3 mps 746 mmHg 94%
    15:00 -13°C° 0 mm 3 mps 746 mmHg 94%
    16:00 -14°C° 0 mm 3 mps 746 mmHg 94%
    17:00 -14°C° 0 mm 3 mps 747 mmHg 94%
    18:00 -15°C° 0 mm 3 mps 747 mmHg 94%
    19:00 -15°C° 0 mm 3 mps 748 mmHg 94%
    20:00 -16°C° 0 mm 3 mps 748 mmHg 94%
    21:00 -16°C° 0 mm 3 mps 748 mmHg 95%
    22:00 -16°C° 0 mm 3 mps 748 mmHg 95%
    23:00 -17°C° 0.1 mm 4 mps 748 mmHg 95%
    Show more